Regional Weather Roundup
Issued by NWS

Home | Current Version | Previous Version | Graphics & Text | Print | Product List | Glossary Off
Versions: 1 2 3 4 5 6 7 8 9 10 11 12 13 14 15 16 17 18 19 20 21 22 23 24 25 26 27 28 29 30 31 32 33 34 35 36 37 38 39 40 41 42 43 44 45 46 47 48 49 50

000
ASUS43 KLMK 271710
RWRKY
KENTUCKY REGIONAL WEATHER ROUNDUP
NATIONAL WEATHER SERVICE LOUISVILLE KY
100 PM EDT FRI MAR 27 2015

NOTE "FAIR" INDICATES FEW OR NO CLOUDS BELOW 12,000 FEET
WITH NO SIGNIFICANT WEATHER AND/OR OBSTRUCTIONS TO VISIBILITY.

KYZ001>023-026-027-061>063-070>075-271800-
WESTERN AND SOUTH CENTRAL KENTUCKY

CITY           SKY/WX    TMP DP  RH WIND       PRES   REMARKS
PADUCAH        CLOUDY    40  32  73 NW13      30.11R WCI  32
HENDERSON      PTSUNNY   39  28  65 N9        30.08S WCI  33
OWENSBORO      CLOUDY    41  29  62 N10G16    30.07R
HOPKINSVILLE   CLOUDY    45  31  58 NW7       30.03S
BOWLING GREEN  PTSUNNY   46  29  51 VRB6      30.02F
GLASGOW        PTSUNNY   44  30  58 N7        30.00S
$$

KYZ024-025-028>034-038-045-046-053-271800-
NORTH CENTRAL KENTUCKY

CITY           SKY/WX    TMP DP  RH WIND       PRES   REMARKS
LOUISVILLE/SDF CLOUDY    41  26  55 N10       30.03S
LOUISVILLE/LOU CLOUDY    40  24  53 NW9       30.03S WCI  34
FORT KNOX      CLOUDY    41  27  59 N12       30.00S
$$

KYZ035>037-039>044-047>052-055>060-089>105-271800-
NORTHEAST KENTUCKY

CITY           SKY/WX    TMP DP  RH WIND       PRES   REMARKS
LEXINGTON      CLOUDY    40  25  55 NW10      29.98S WCI  33
COVINGTON      CLOUDY    35  22  58 N15       30.00S WCI  25
FRANKFORT      CLOUDY    39  23  52 N13G18    29.99S WCI  31
$$

KYZ054-064>069-076>088-106>120-271800-
SOUTHEAST KENTUCKY

CITY           SKY/WX    TMP DP  RH WIND       PRES   REMARKS
JACKSON        PTSUNNY   43  27  53 NW8       29.91F
LONDON         PTSUNNY   43  24  47 NW8       29.93F
SOMERSET       PTSUNNY   43  27  52 N7        29.97F
MIDDLESBORO    PTSUNNY   45  32  60 N7G16     29.92F
MONTICELLO     MOSUNNY   47  30  51 N9        29.98F
$$



USA.gov is the U.S. government's official web portal to all federal, state and local government web resources and services.